013  
ASUS42 KFFC 200310  
RWRGA  
WEATHER ROUNDUP FOR GEORGIA  
NATIONAL WEATHER SERVICE PEACHTREE CITY GA  
1100 PM EDT TUE JUN 19 2018  
 
NOTE: "FAIR" INDICATES FEW OR NO CLOUDS BELOW 12,000 FEET WITH NO  
SIGNIFICANT WEATHER AND/OR S TO VISIBILITY
.  
 
* = USE WITH CAUTION. THE STATIONS MARKED WITH AN ASTERISK MAY NOT  
REPORT WEATHER SUCH AS PRECIPITATION, FOG, OR THUNDER AND ARE NOT  
QUALITY CONTROLLED BY NWS.  
 
THE REMARK "TC" DENOTES TEMPERATURE READING IN DEGREES CELSIUS.  
 
GAZ001>058-200400-  
NORTH GEORGIA  
 
CITY SKY/WX TMP DP RH WIND PRES REMARKS
 
ATLANTA FAIR 82 69 64 NW7 29.99R  
ATHENS FAIR 79 74 84 CALM 29.96R  
CHAMBLEE FAIR 81 69 67 NW5 29.99R  
PEACHTREE CITY FAIR 78 74 87 CALM 29.99R  
ROME FAIR 79 73 82 CALM 29.98R  
WEST ATLANTA FAIR 82 72 71 CALM 29.98R  
GAINESVILLE FAIR 80 71 74 NW6 30.01R  
CARTERSVILLE FAIR 77 74 90 CALM 30.00R  
 
 
CITY SKY/WX TMP DP RH WIND PRES REMARKS
 
DALTON* FAIR 77 70 78 CALM 30.01R  
LAWRENCEVILLE* FAIR 80 72 76 CALM 29.99R  
MARIETTA PTCLDY 84 68 58 NW1 30.01R  
KENNESAW* FAIR 80 72 76 W3 30.01R  
CANTON* FAIR 79 68 69 CALM 30.02R  
BLAIRSVILLE* FAIR 72 69 91 CALM 30.06S  

 
 
GAZ059>098-102>109-200400-  
CENTRAL GEORGIA  
 
CITY SKY/WX TMP DP RH WIND PRES REMARKS
 
AUGUSTA-BUSH FAIR 80 75 84 CALM 29.91R  
AUGUSTA-DANIEL FAIR 86 74 67 W3 29.94R HX 94  
COLUMBUS FAIR 86 71 60 NW5 29.96R HX 91  
MACON FAIR 81 76 84 CALM 29.94R  
ROBINS AFB CLEAR 80 77 91 CALM 29.93R  
 
 
CITY SKY/WX TMP DP RH WIND PRES REMARKS
 
LAGRANGE* FAIR 79 77 93 CALM 29.99R  
SYLVANIA* FAIR 83 77 81 S3 29.95R HX 93  
MILLEDGEVILLE* FAIR 81 77 89 CALM 29.94S  

 
 
GAZ099>101-110>166-200400-  
SOUTH GEORGIA  
 
CITY SKY/WX TMP DP RH WIND PRES REMARKS
 
SAVANNAH FAIR 82 75 79 S7 29.95R  
VALDOSTA FAIR 77 75 93 S6 29.96R  
ALMA FAIR 78 74 87 SE3 29.95R  
ST SIMONS FAIR 81 72 74 SW12 29.96R  
FT STEWART FAIR 81 74 80 S6 29.94R  
ALBANY FAIR 84 75 74 CALM 29.96R HX 92  
HUNTER AFB FAIR 81 74 79 S6 29.93R  
MOODY AFB FAIR 79 74 84 S5 29.95R  
BRUNSWICK FAIR 79 72 78 SW6 29.98R  
 
 
CITY SKY/WX TMP DP RH WIND PRES REMARKS
 
BAINBRIDGE* FAIR 84 73 70 CALM 29.95R HX 91  
MOULTRIE* FAIR 81 75 83 CALM 29.97S  
VIDALIA* FAIR 81 73 78 CALM 29.94F  
WAYCROSS* FAIR 78 75 91 SW5 29.96R  
DOUGLAS* FAIR 79 73 83 CALM 29.97R  

 
 
 
CLICK HERE TO GO TO PREVIOUS BULLETINS.

The Nexlab GA Page Main Text Page